When you browse on this site, cookies collect data to enhance your experience and personalize the content and advertising you see.
Visit our Privacy Policy to learn more. By continuing to use the site, you agree to this use of cookies and data.
  • en Suisse
  • Liste des pays
  • À 7 jours
  • Température de l'eau
  • Carte météo
  • Widgets météo
  • user-avatar
    Se connecter

    Météo par heure à Bedford

    Ce jour, 23 Septembre, Lundi

    Heure Température Précipitation Vent Pression Humidité
    00:00 +13°C° 0 mm 3 m/s 752 mmHg 93%
    01:00 +13°C° 0 mm 4 m/s 752 mmHg 94%
    02:00 +13°C° 0 mm 4 m/s 752 mmHg 95%
    03:00 +12°C° 0 mm 4 m/s 752 mmHg 96%
    04:00 +12°C° 0 mm 4 m/s 752 mmHg 95%
    05:00 +12°C° 0 mm 4 m/s 753 mmHg 95%
    06:00 +13°C° 0 mm 3 m/s 754 mmHg 94%
    07:00 +14°C° 0 mm 4 m/s 754 mmHg 89%
    08:00 +15°C° 0 mm 4 m/s 754 mmHg 83%
    09:00 +16°C° 0 mm 5 m/s 754 mmHg 78%
    10:00 +17°C° 0 mm 5 m/s 754 mmHg 71%
    11:00 +19°C° 0 mm 5 m/s 755 mmHg 65%
    12:00 +20°C° 0 mm 5 m/s 755 mmHg 58%
    13:00 +20°C° 0 mm 6 m/s 754 mmHg 59%
    14:00 +20°C° 0 mm 6 m/s 754 mmHg 60%
    15:00 +20°C° 0 mm 6 m/s 754 mmHg 61%
    16:00 +19°C° 0.4 mm 6 m/s 754 mmHg 69%
    17:00 +16°C° 0.4 mm 6 m/s 753 mmHg 77%
    18:00 +15°C° 0.4 mm 6 m/s 753 mmHg 86%
    19:00 +15°C° 0.2 mm 6 m/s 753 mmHg 87%
    20:00 +15°C° 0.2 mm 6 m/s 753 mmHg 87%
    21:00 +15°C° 0.2 mm 7 m/s 753 mmHg 88%
    22:00 +16°C° 0.2 mm 6 m/s 752 mmHg 89%
    23:00 +16°C° 0.2 mm 6 m/s 752 mmHg 91%

    Demain, 24 Septembre, Mardi

    Heure Température Précipitation Vent Pression Humidité
    00:00 +16°C° 0.2 mm 5 m/s 752 mmHg 92%
    01:00 +16°C° 0.1 mm 5 m/s 751 mmHg 92%
    02:00 +16°C° 0.1 mm 5 m/s 751 mmHg 93%
    03:00 +17°C° 0.1 mm 4 m/s 750 mmHg 94%
    04:00 +16°C° 0.8 mm 5 m/s 750 mmHg 93%
    05:00 +16°C° 0.8 mm 5 m/s 749 mmHg 93%
    06:00 +16°C° 0.8 mm 5 m/s 748 mmHg 93%
    07:00 +16°C° 2.2 mm 5 m/s 748 mmHg 93%
    08:00 +16°C° 2.2 mm 5 m/s 747 mmHg 92%
    09:00 +16°C° 2.2 mm 5 m/s 747 mmHg 92%
    10:00 +16°C° 3.7 mm 5 m/s 747 mmHg 91%
    11:00 +16°C° 3.7 mm 5 m/s 746 mmHg 90%
    12:00 +16°C° 3.7 mm 5 m/s 746 mmHg 89%
    13:00 +16°C° 0.5 mm 5 m/s 746 mmHg 85%
    14:00 +17°C° 0.5 mm 5 m/s 746 mmHg 81%
    15:00 +19°C° 0.5 mm 5 m/s 746 mmHg 78%
    16:00 +17°C° 0 mm 5 m/s 746 mmHg 79%
    17:00 +16°C° 0 mm 5 m/s 746 mmHg 80%
    18:00 +15°C° 0 mm 5 m/s 746 mmHg 82%
    19:00 +14°C° 0 mm 5 m/s 747 mmHg 85%
    20:00 +14°C° 0 mm 5 m/s 747 mmHg 87%
    21:00 +13°C° 0 mm 5 m/s 747 mmHg 90%
    22:00 +14°C° 0.1 mm 5 m/s 747 mmHg 90%
    23:00 +14°C° 0.1 mm 5 m/s 746 mmHg 89%

    Après-demain, 25 Septembre, Mercredi

    Heure Température Précipitation Vent Pression Humidité
    00:00 +14°C° 0.1 mm 5 m/s 746 mmHg 89%
    01:00 +14°C° 0.3 mm 5 m/s 746 mmHg 90%
    02:00 +14°C° 0.3 mm 5 m/s 745 mmHg 91%
    03:00 +14°C° 0.3 mm 5 m/s 745 mmHg 91%
    04:00 +14°C° 0.1 mm 4 m/s 745 mmHg 92%
    05:00 +13°C° 0.1 mm 4 m/s 745 mmHg 93%
    06:00 +13°C° 0.1 mm 4 m/s 744 mmHg 93%
    07:00 +14°C° 0.1 mm 3 m/s 745 mmHg 92%
    08:00 +14°C° 0.1 mm 3 m/s 745 mmHg 90%
    09:00 +16°C° 0.1 mm 2 m/s 745 mmHg 89%
    10:00 +17°C° 0.1 mm 2 m/s 745 mmHg 85%
    11:00 +18°C° 0.1 mm 2 m/s 746 mmHg 82%
    12:00 +18°C° 0.1 mm 3 m/s 746 mmHg 79%
    13:00 +19°C° 0.1 mm 3 m/s 747 mmHg 78%
    14:00 +19°C° 0.1 mm 4 m/s 747 mmHg 77%
    15:00 +19°C° 0.1 mm 4 m/s 747 mmHg 76%
    16:00 +18°C° 0.1 mm 4 m/s 748 mmHg 80%
    17:00 +17°C° 0.1 mm 3 m/s 748 mmHg 84%
    18:00 +16°C° 0.1 mm 3 m/s 748 mmHg 88%
    19:00 +16°C° 0 mm 3 m/s 749 mmHg 89%
    20:00 +14°C° 0 mm 3 m/s 749 mmHg 91%
    21:00 +14°C° 0 mm 3 m/s 749 mmHg 93%
    22:00 +14°C° 0 mm 4 m/s 749 mmHg 93%
    23:00 +14°C° 0 mm 4 m/s 749 mmHg 93%

    26 Septembre, Jeudi

    Heure Température Précipitation Vent Pression Humidité
    00:00 +14°C° 0 mm 4 m/s 749 mmHg 94%
    01:00 +14°C° 0.1 mm 4 m/s 749 mmHg 94%
    02:00 +15°C° 0.1 mm 5 m/s 749 mmHg 94%
    03:00 +16°C° 0.1 mm 5 m/s 749 mmHg 94%
    04:00 +16°C° 0.2 mm 5 m/s 749 mmHg 94%
    05:00 +16°C° 0.2 mm 5 m/s 749 mmHg 93%
    06:00 +16°C° 0.2 mm 5 m/s 749 mmHg 93%
    07:00 +16°C° 0.3 mm 6 m/s 749 mmHg 90%
    08:00 +17°C° 0.3 mm 6 m/s 750 mmHg 88%
    09:00 +17°C° 0.3 mm 7 m/s 750 mmHg 85%
    10:00 +17°C° 0.4 mm 6 m/s 750 mmHg 84%
    11:00 +16°C° 0.4 mm 5 m/s 750 mmHg 84%
    12:00 +17°C° 0.4 mm 4 m/s 750 mmHg 84%
    13:00 +16°C° 0 mm 5 m/s 750 mmHg 77%
    14:00 +17°C° 0 mm 5 m/s 750 mmHg 71%
    15:00 +17°C° 0 mm 6 m/s 750 mmHg 65%
    16:00 +16°C° 0 mm 5 m/s 751 mmHg 69%
    17:00 +15°C° 0 mm 4 m/s 751 mmHg 73%
    18:00 +14°C° 0 mm 4 m/s 751 mmHg 78%
    19:00 +14°C° 0 mm 4 m/s 751 mmHg 79%
    20:00 +13°C° 0 mm 4 m/s 752 mmHg 81%
    21:00 +13°C° 0 mm 4 m/s 752 mmHg 83%
    22:00 +12°C° 0 mm 4 m/s 752 mmHg 84%
    23:00 +12°C° 0 mm 5 m/s 752 mmHg 85%

    27 Septembre, Vendredi

    Heure Température Précipitation Vent Pression Humidité
    00:00 +12°C° 0 mm 5 m/s 752 mmHg 85%
    01:00 +10°C° 0 mm 5 m/s 752 mmHg 86%
    02:00 +10°C° 0 mm 5 m/s 752 mmHg 87%
    03:00 +10°C° 0 mm 5 m/s 752 mmHg 88%
    04:00 +10°C° 0 mm 5 m/s 751 mmHg 89%
    05:00 +10°C° 0 mm 5 m/s 751 mmHg 89%
    06:00 +10°C° 0 mm 5 m/s 751 mmHg 90%
    07:00 +11°C° 0 mm 6 m/s 751 mmHg 85%
    08:00 +13°C° 0 mm 6 m/s 751 mmHg 80%
    09:00 +14°C° 0 mm 7 m/s 751 mmHg 75%
    10:00 +15°C° 0.1 mm 8 m/s 751 mmHg 73%
    11:00 +16°C° 0.1 mm 8 m/s 751 mmHg 71%
    12:00 +17°C° 0.1 mm 9 m/s 751 mmHg 69%
    13:00 +16°C° 0.3 mm 8 m/s 751 mmHg 69%
    14:00 +16°C° 0.3 mm 8 m/s 751 mmHg 70%
    15:00 +16°C° 0.3 mm 8 m/s 750 mmHg 70%
    16:00 +15°C° 0.2 mm 8 m/s 750 mmHg 73%
    17:00 +14°C° 0.2 mm 7 m/s 750 mmHg 76%
    18:00 +14°C° 0.2 mm 6 m/s 750 mmHg 80%
    19:00 +13°C° 0 mm 6 m/s 751 mmHg 81%
    20:00 +13°C° 0 mm 6 m/s 751 mmHg 82%
    21:00 +11°C° 0 mm 6 m/s 751 mmHg 83%
    22:00 +11°C° 0 mm 6 m/s 751 mmHg 84%
    23:00 +11°C° 0 mm 6 m/s 751 mmHg 85%

    28 Septembre, Samedi

    Heure Température Précipitation Vent Pression Humidité
    00:00 +10°C° 0 mm 6 m/s 751 mmHg 86%
    01:00 +11°C° 0.1 mm 6 m/s 751 mmHg 86%
    02:00 +11°C° 0.1 mm 6 m/s 751 mmHg 86%
    03:00 +11°C° 0.1 mm 6 m/s 751 mmHg 86%
    04:00 +11°C° 0 mm 6 m/s 751 mmHg 87%
    05:00 +10°C° 0 mm 6 m/s 751 mmHg 87%
    06:00 +10°C° 0 mm 6 m/s 751 mmHg 88%
    07:00 +11°C° 0 mm 7 m/s 752 mmHg 83%
    08:00 +12°C° 0 mm 8 m/s 752 mmHg 79%
    09:00 +13°C° 0 mm 8 m/s 752 mmHg 75%
    10:00 +15°C° 0.1 mm 8 m/s 753 mmHg 72%
    11:00 +15°C° 0.1 mm 8 m/s 753 mmHg 70%
    12:00 +16°C° 0.1 mm 8 m/s 753 mmHg 67%
    13:00 +16°C° 0.2 mm 8 m/s 753 mmHg 68%
    14:00 +16°C° 0.2 mm 8 m/s 753 mmHg 68%
    15:00 +16°C° 0.2 mm 8 m/s 752 mmHg 69%
    16:00 +15°C° 0.1 mm 7 m/s 752 mmHg 73%
    17:00 +14°C° 0.1 mm 6 m/s 753 mmHg 77%
    18:00 +13°C° 0.1 mm 6 m/s 753 mmHg 80%
    19:00 +13°C° 0.1 mm 5 m/s 753 mmHg 82%
    20:00 +13°C° 0.1 mm 5 m/s 753 mmHg 84%
    21:00 +13°C° 0.1 mm 5 m/s 753 mmHg 86%
    22:00 +12°C° 0.1 mm 5 m/s 753 mmHg 87%
    23:00 +12°C° 0.1 mm 5 m/s 753 mmHg 87%
    Voir plus